Tracking 19795 objects as of 20-Jul-2019
HD Live streaming from Space Station
objects crossing your sky now

GORIZONT 6

Track GORIZONT 6 now!
GORIZONT 6 is classified as:


NORAD ID: 13624
Int'l Code: 1982-103A
Perigee: 35,759.6 km
Apogee: 35,773.3 km
Inclination: 12.5 °
Period: 1,434.7 minutes
Semi major axis: 42137 km
RCS: 3.1622 m2 (large)
Launch date: October 20, 1982
Source: Commonwealth of Independent States (former USSR) (CIS)
Launch site: TYURATAM MISSILE AND SPACE COMPLEX (TTMTR)
aabbcc
Your satellite tracking list
Your tracking list is empty




NASA's NSSDC Master Catalog

Two Line Element Set (TLE):
1 13624U 82103A   19200.60830483 +.00000036 +00000-0 +00000-0 0  9993
2 13624 012.4978 325.4598 0001630 349.0371 070.5567 01.00369262095634
Source of the keplerian elements: AFSPC